Terminal Aerodrome Forecast
Issued by NWS

Home | Current Version | Previous Version | Text Only | Print | Product List | Glossary On
Versions: 1 2 3 4 5 6 7 8 9 10 11 12 13
000
FTUS41 KBTV 280536
TAFMSS
TAF
KMSS 280536Z 2806/2906 22006KT P6SM BKN060
     FM281200 VRB03KT P6SM VCSH BKN060
     FM281800 32007KT P6SM VCSH BKN080
     FM290000 00000KT P6SM BKN060
     FM290300 VRB03KT P6SM SCT110=

USA.gov is the U.S. government's official web portal to all federal, state and local government web resources and services.